Regional Weather Roundup
Issued by NWS

Home | Current Version | Previous Version | Text Only | Print | Product List | Glossary Off
Versions: 1 2 3 4 5 6 7 8 9 10 11 12 13 14 15 16 17 18 19 20 21 22 23 24 25 26 27 28 29 30 31 32 33 34 35 36 37 38 39 40 41 42 43 44 45 46 47 48 49 50

000
ASUS43 KOAX 252302
RWRNE

WEATHER ROUNDUP FOR NEBRASKA
NATIONAL WEATHER SERVICE OMAHA NE
600 PM CDT SAT APR 25 2015

NOTES: SATELLITE DATA IS BEING USED TO AUGMENT CLOUD COVER ABOVE
       12000 FEET.
       "FAIR" INDICATES FEW OR NO CLOUDS BELOW 12,000 FEET WITH NO
       SIGNIFICANT WEATHER AND/OR OBSTRUCTIONS TO VISIBILITY.

  * THESE STATIONS DO NOT REPORT WEATHER SUCH AS RAIN...SNOW OR FOG.

NEZ001>004-019>022-054>056-260000-
NEBRASKA PANHANDLE

CITY           SKY/WX    TMP DP  RH WIND       PRES   REMARKS
SCOTTSBLUFF    CLOUDY    63  42  46 S8        29.69S
ALLIANCE       TSTM      56  46  69 SW20G28   29.70R
CHADRON        TSTM      53  47  79 NW22G39   29.69R
KIMBALL        CLOUDY    63  39  41 NE7       29.71R
SIDNEY         CLOUDY    56  44  64 E10       29.72R THUNDER
$$

NEZ057>060-069>072-079>082-260000-
SOUTHWEST NEBRASKA

CITY           SKY/WX    TMP DP  RH WIND       PRES   REMARKS
IMPERIAL       SUNNY     69  44  40 E13       29.68S
MCCOOK         MOSUNNY   68  52  56 E16       29.70R
$$

NEZ005>010-023>029-035>040-094-260000-
NORTH CENTRAL NEBRASKA

CITY           SKY/WX    TMP DP  RH WIND       PRES   REMARKS
VALENTINE      PTSUNNY   61  46  57 SE17      29.75S
AINSWORTH      CLOUDY    55  47  76 SE12      29.78S
BROKEN BOW     CLOUDY    56  47  71 E14       29.76S
ORD            CLOUDY    56  46  69 E13       29.77R
$$

NEZ041-046>049-061>064-073>077-083>087-260000-
SOUTH CENTRAL NEBRASKA

CITY           SKY/WX    TMP DP  RH WIND       PRES   REMARKS
GRAND ISLAND   CLOUDY    51  47  86 NE8       29.78R
AURORA         CLOUDY    51  50  97 NE12      29.77R
HASTINGS       CLOUDY    50  47  89 NE9       29.76R FOG
KEARNEY *      CLOUDY    52  46  82 NE12      29.77R
YORK           CLOUDY    50  48  93 NE10      29.76R
$$

NEZ011>018-030>034-042>045-260000-
NORTHEAST NEBRASKA

CITY           SKY/WX    TMP DP  RH WIND       PRES   REMARKS
NORFOLK        CLOUDY    57  45  64 E13       29.78R
BLAIR          CLOUDY    51  45  78 NE13G21   29.77R
COLUMBUS *     CLOUDY    52  43  71 NE12      29.79S
TEKAMAH        CLOUDY    55  46  71 NE14      29.78R
$$

NEZ050>053-065>068-078-088>093-260000-
SOUTHEAST NEBRASKA

CITY           SKY/WX    TMP DP  RH WIND       PRES   REMARKS
LINCOLN        CLOUDY    53  47  79 NE16      29.77R
OMAHA EPPLEY   CLOUDY    52  45  77 NE9       29.77R
FALLS CITY     CLOUDY    50  46  86 NE15      29.73R
NEBRASKA CITY  CLOUDY    49  46  90 NE12      29.75R
$$

NEZ044-045-051>053-067-260000-
OMAHA AREA

CITY           SKY/WX    TMP DP  RH WIND       PRES   REMARKS
OMAHA EPPLEY   CLOUDY    52  45  77 NE9       29.77R
BLAIR          CLOUDY    51  45  78 NE13G21   29.77R
OFFUTT AFB     CLOUDY    51  46  81 N14       29.77R
WAHOO          CLOUDY    53  46  76 NE10G18   29.78R
$$


USA.gov is the U.S. government's official web portal to all federal, state and local government web resources and services.